• In Uzbekistan
  • List of Countries
  • For 7 days
  • Water Temperature
  • Satellite Maps
  • Weather Map
  • Weather Widgets
  • user-avatar
    Login

    Hourly Weather Skagen

    Today, 20 November, Monday

    Time Temperature Precipitation Wind Pressure Humidity
    00:00 +1°C° 0 mm 3 mps 755 mmHg 62%
    01:00 +2°C° 0 mm 2 mps 755 mmHg 67%
    02:00 +2°C° 0 mm 2 mps 755 mmHg 68%
    03:00 +2°C° 0 mm 2 mps 756 mmHg 70%
    04:00 +2°C° 0 mm 2 mps 756 mmHg 72%
    05:00 +2°C° 0 mm 2 mps 756 mmHg 72%
    06:00 +1°C° 0 mm 3 mps 756 mmHg 72%
    07:00 +2°C° 0 mm 2 mps 756 mmHg 73%
    08:00 +2°C° 0 mm 2 mps 756 mmHg 73%
    09:00 +2°C° 0 mm 2 mps 757 mmHg 74%
    10:00 +1°C° 0 mm 3 mps 757 mmHg 74%
    11:00 +2°C° 0 mm 3 mps 757 mmHg 72%
    12:00 +2°C° 0 mm 3 mps 757 mmHg 71%
    13:00 +3°C° 0 mm 3 mps 757 mmHg 68%
    14:00 +2°C° 0 mm 3 mps 757 mmHg 71%
    15:00 +2°C° 0 mm 3 mps 757 mmHg 73%
    16:00 +1°C° 0 mm 3 mps 757 mmHg 76%
    17:00 +1°C° 0 mm 3 mps 757 mmHg 78%
    18:00 0°C° 0 mm 4 mps 757 mmHg 79%
    19:00 0°C° 0 mm 4 mps 757 mmHg 81%
    20:00 0°C° 0 mm 4 mps 757 mmHg 82%
    21:00 0°C° 0 mm 4 mps 757 mmHg 83%
    22:00 0°C° 0 mm 4 mps 757 mmHg 84%
    23:00 0°C° 0 mm 4 mps 757 mmHg 84%

    Tomorrow, 21 November, Tuesday

    Time Temperature Precipitation Wind Pressure Humidity
    00:00 0°C° 0 mm 4 mps 757 mmHg 85%
    01:00 0°C° 0 mm 4 mps 757 mmHg 85%
    02:00 0°C° 0.1 mm 4 mps 757 mmHg 86%
    03:00 0°C° 0.1 mm 4 mps 757 mmHg 86%
    04:00 -1°C° 0.1 mm 4 mps 757 mmHg 86%
    05:00 0°C° 0.1 mm 4 mps 757 mmHg 86%
    06:00 0°C° 0.1 mm 4 mps 757 mmHg 86%
    07:00 0°C° 0.1 mm 4 mps 757 mmHg 85%
    08:00 0°C° 0.1 mm 4 mps 757 mmHg 85%
    09:00 0°C° 0.1 mm 4 mps 757 mmHg 84%
    10:00 0°C° 0.1 mm 4 mps 757 mmHg 84%
    11:00 +1°C° 0.1 mm 4 mps 757 mmHg 81%
    12:00 +3°C° 0.1 mm 4 mps 757 mmHg 79%
    13:00 +3°C° 0.1 mm 4 mps 757 mmHg 76%
    14:00 +1°C° 0.1 mm 4 mps 757 mmHg 79%
    15:00 +1°C° 0.1 mm 4 mps 757 mmHg 81%
    16:00 0°C° 0.1 mm 4 mps 757 mmHg 83%
    17:00 0°C° 0 mm 5 mps 757 mmHg 83%
    18:00 +1°C° 0 mm 6 mps 757 mmHg 82%
    19:00 +1°C° 0 mm 6 mps 757 mmHg 82%
    20:00 0°C° 0.1 mm 7 mps 756 mmHg 82%
    21:00 0°C° 0.1 mm 8 mps 756 mmHg 83%
    22:00 +1°C° 0.1 mm 8 mps 755 mmHg 83%
    23:00 +1°C° 0.4 mm 9 mps 755 mmHg 84%

    Day after tomorrow, 22 November, Wednesday

    Time Temperature Precipitation Wind Pressure Humidity
    00:00 +1°C° 0.4 mm 10 mps 754 mmHg 85%
    01:00 +1°C° 0.4 mm 11 mps 754 mmHg 85%
    02:00 +1°C° 1.4 mm 11 mps 753 mmHg 86%
    03:00 0°C° 1.4 mm 12 mps 752 mmHg 87%
    04:00 +1°C° 1.4 mm 13 mps 751 mmHg 88%
    05:00 +1°C° 0.9 mm 13 mps 750 mmHg 89%
    06:00 +1°C° 0.9 mm 13 mps 750 mmHg 90%
    07:00 +1°C° 0.9 mm 13 mps 749 mmHg 91%
    08:00 +3°C° 0.3 mm 13 mps 749 mmHg 92%
    09:00 +3°C° 0.3 mm 13 mps 748 mmHg 92%
    10:00 +4°C° 0.3 mm 12 mps 748 mmHg 93%
    11:00 +4°C° 0.6 mm 12 mps 748 mmHg 93%
    12:00 +6°C° 0.6 mm 11 mps 747 mmHg 94%
    13:00 +6°C° 0.6 mm 10 mps 747 mmHg 95%
    14:00 +7°C° 1.7 mm 10 mps 746 mmHg 94%
    15:00 +7°C° 1.7 mm 10 mps 746 mmHg 94%
    16:00 +7°C° 1.7 mm 10 mps 746 mmHg 94%
    17:00 +7°C° 0.5 mm 9 mps 746 mmHg 93%
    18:00 +8°C° 0.5 mm 9 mps 745 mmHg 92%
    19:00 +8°C° 0.5 mm 9 mps 745 mmHg 91%
    20:00 +8°C° 0.1 mm 10 mps 745 mmHg 90%
    21:00 +8°C° 0.1 mm 10 mps 745 mmHg 88%
    22:00 +8°C° 0.1 mm 11 mps 745 mmHg 87%
    23:00 +7°C° 0.3 mm 11 mps 745 mmHg 84%

    23 November, Thursday

    Time Temperature Precipitation Wind Pressure Humidity
    00:00 +7°C° 0.3 mm 12 mps 744 mmHg 82%
    01:00 +7°C° 0.3 mm 13 mps 744 mmHg 79%
    02:00 +7°C° 0.3 mm 13 mps 744 mmHg 79%
    03:00 +7°C° 0.3 mm 13 mps 744 mmHg 79%
    04:00 +7°C° 0.3 mm 13 mps 743 mmHg 79%
    05:00 +7°C° 0.4 mm 13 mps 743 mmHg 80%
    06:00 +7°C° 0.4 mm 13 mps 743 mmHg 82%
    07:00 +7°C° 0.4 mm 12 mps 743 mmHg 84%
    08:00 +8°C° 0.3 mm 12 mps 743 mmHg 84%
    09:00 +8°C° 0.3 mm 13 mps 743 mmHg 84%
    10:00 +8°C° 0.3 mm 13 mps 743 mmHg 84%
    11:00 +8°C° 0.7 mm 13 mps 743 mmHg 84%
    12:00 +8°C° 0.7 mm 12 mps 743 mmHg 85%
    13:00 +8°C° 0.7 mm 12 mps 743 mmHg 85%
    14:00 +8°C° 0.1 mm 11 mps 744 mmHg 86%
    15:00 +8°C° 0.1 mm 11 mps 745 mmHg 87%
    16:00 +8°C° 0.1 mm 10 mps 746 mmHg 87%
    17:00 +8°C° 0 mm 10 mps 746 mmHg 86%
    18:00 +8°C° 0 mm 11 mps 747 mmHg 84%
    19:00 +8°C° 0 mm 11 mps 748 mmHg 82%
    20:00 +7°C° 0 mm 10 mps 749 mmHg 80%
    21:00 +6°C° 0 mm 10 mps 750 mmHg 78%
    22:00 +6°C° 0 mm 10 mps 752 mmHg 76%
    23:00 +5°C° 0 mm 9 mps 752 mmHg 78%

    24 November, Friday

    Time Temperature Precipitation Wind Pressure Humidity
    00:00 +5°C° 0 mm 8 mps 753 mmHg 80%
    01:00 +5°C° 0 mm 8 mps 753 mmHg 82%
    02:00 +5°C° 0 mm 8 mps 753 mmHg 83%
    03:00 +5°C° 0 mm 8 mps 753 mmHg 85%
    04:00 +5°C° 0 mm 8 mps 753 mmHg 86%
    05:00 +6°C° 1.2 mm 9 mps 752 mmHg 88%
    06:00 +7°C° 1.2 mm 9 mps 752 mmHg 90%
    07:00 +7°C° 1.2 mm 10 mps 751 mmHg 91%
    08:00 +8°C° 0.6 mm 10 mps 751 mmHg 92%
    09:00 +8°C° 0.6 mm 10 mps 750 mmHg 93%
    10:00 +8°C° 0.6 mm 9 mps 750 mmHg 93%
    11:00 +8°C° 0.9 mm 10 mps 750 mmHg 93%
    12:00 +8°C° 0.9 mm 10 mps 749 mmHg 93%
    13:00 +8°C° 0.9 mm 10 mps 749 mmHg 93%
    14:00 +8°C° 0.7 mm 9 mps 749 mmHg 93%
    15:00 +8°C° 0.7 mm 9 mps 750 mmHg 93%
    16:00 +8°C° 0.7 mm 9 mps 750 mmHg 93%
    17:00 +9°C° 0.1 mm 8 mps 751 mmHg 91%
    18:00 +8°C° 0.1 mm 7 mps 751 mmHg 89%
    19:00 +8°C° 0.1 mm 7 mps 752 mmHg 88%
    20:00 +7°C° 0.1 mm 6 mps 753 mmHg 87%
    21:00 +7°C° 0.1 mm 5 mps 753 mmHg 86%
    22:00 +6°C° 0.1 mm 5 mps 754 mmHg 85%
    23:00 +6°C° 0.2 mm 4 mps 754 mmHg 83%

    25 November, Saturday

    Time Temperature Precipitation Wind Pressure Humidity
    00:00 +6°C° 0.2 mm 4 mps 754 mmHg 81%
    01:00 +7°C° 0.2 mm 3 mps 754 mmHg 79%
    02:00 +5°C° 0.5 mm 3 mps 754 mmHg 78%
    03:00 +5°C° 0.5 mm 3 mps 754 mmHg 77%
    04:00 +5°C° 0.5 mm 3 mps 754 mmHg 75%
    05:00 +5°C° 0.1 mm 3 mps 754 mmHg 76%
    06:00 +5°C° 0.1 mm 3 mps 753 mmHg 76%
    07:00 +5°C° 0.1 mm 3 mps 753 mmHg 76%
    08:00 +5°C° 0 mm 3 mps 753 mmHg 76%
    09:00 +5°C° 0 mm 3 mps 753 mmHg 76%
    10:00 +5°C° 0 mm 4 mps 753 mmHg 76%
    11:00 +5°C° 0.9 mm 5 mps 752 mmHg 80%
    12:00 +4°C° 0.9 mm 6 mps 751 mmHg 83%
    13:00 +4°C° 0.9 mm 7 mps 750 mmHg 86%
    14:00 +5°C° 0.7 mm 7 mps 749 mmHg 89%
    15:00 +6°C° 0.7 mm 8 mps 748 mmHg 92%
    16:00 +6°C° 0.7 mm 9 mps 746 mmHg 95%
    17:00 +7°C° 1.3 mm 10 mps 745 mmHg 91%
    18:00 +7°C° 1.3 mm 10 mps 743 mmHg 88%
    19:00 +7°C° 1.3 mm 11 mps 742 mmHg 84%
    20:00 +7°C° 0.2 mm 11 mps 742 mmHg 84%
    21:00 +5°C° 0.2 mm 12 mps 742 mmHg 85%
    22:00 +4°C° 0.2 mm 12 mps 741 mmHg 85%
    23:00 +4°C° 0.1 mm 13 mps 743 mmHg 78%
    Show more